Date String (YYYY-MM-DD hh:mm:ss) UTC,Instrument flags,Ambient pressure (hPa),Sample flow (lpm),Bypass flow (lpm),Sample temperature (°C),Ambient temperature (°C),ASC tube jacket temperature (°C),LED temperature (°C),Box temperature (°C),Sample RH (%),Span deviation,Mass concentration (μg/m³),Mass concentration (μg/m³),Mass concentration (μg/m³)
DateTimeUTC,F1_M11,P_M11,Q1_M11,Q2_M11,T1_M11,T2_M11,T3_M11,T4_M11,T5_M11,U1_M11,ZSPAN_M11,X0_M11,X2_M11,X1_M11
2022-05-16 11:00:00,,0826.5,5.00,0.00,29.6,28.8,00.0,38.7,31.3,16.1,0000.0,0010.11,0003.87,0002.17
2022-05-16 11:01:00,,0826.5,5.01,0.00,29.6,28.7,00.0,38.7,31.3,16.2,0000.0,0010.93,0003.85,0002.19
2022-05-16 11:02:00,,0826.5,5.00,0.00,29.6,28.7,00.0,38.7,31.2,16.2,0000.0,0010.70,0003.79,0002.19
2022-05-16 11:03:00,,0826.5,5.01,0.00,29.5,28.7,00.0,38.7,31.2,16.2,0000.0,0010.90,0003.79,0002.21
2022-05-16 11:04:00,,0826.5,4.99,0.00,29.5,28.7,00.0,38.7,31.2,16.3,0000.0,0011.44,0003.80,0002.22
2022-05-16 11:05:00,,0826.6,4.99,0.00,29.5,28.7,00.0,38.6,31.1,16.3,0000.0,0012.30,0003.80,0002.22
2022-05-16 11:06:00,,0826.6,5.00,0.00,29.5,28.6,00.0,38.6,31.1,16.3,0000.0,0012.93,0003.76,0002.21
2022-05-16 11:07:00,,0826.6,5.01,0.00,29.4,28.6,00.0,38.6,31.1,16.3,0000.0,0013.37,0003.79,0002.21
2022-05-16 11:08:00,,0826.6,5.00,0.00,29.4,28.6,00.0,38.6,31.0,16.4,0000.0,0014.16,0003.77,0002.21
2022-05-16 11:09:00,,0826.6,4.99,0.00,29.4,28.5,00.0,38.6,31.0,16.4,0000.0,0015.18,0003.81,0002.22
2022-05-16 11:10:00,,0826.6,5.01,0.00,29.3,28.5,00.0,38.5,31.0,16.5,0000.0,0015.23,0003.83,0002.21
2022-05-16 11:11:00,,0826.6,5.00,0.00,29.3,28.5,00.0,38.5,31.0,16.5,0000.0,0015.15,0003.79,0002.20
2022-05-16 11:12:00,,0826.6,4.99,0.00,29.3,28.5,00.0,38.5,31.0,16.6,0000.0,0014.57,0003.80,0002.18
2022-05-16 11:13:00,,0826.6,4.99,0.00,29.3,28.5,00.0,38.5,30.9,16.6,0000.0,0014.38,0003.77,0002.17
2022-05-16 11:14:00,,0826.5,5.00,0.00,29.3,28.4,00.0,38.4,30.9,16.7,0000.0,0013.95,0003.73,0002.17
2022-05-16 11:15:00,,0826.5,5.00,0.00,29.2,28.4,00.0,38.4,30.9,16.6,0000.0,0013.31,0003.72,0002.16
2022-05-16 11:16:00,,0826.5,5.00,0.00,29.2,28.4,00.0,38.4,30.9,16.6,0000.0,0012.84,0003.67,0002.14
2022-05-16 11:17:00,,0826.5,5.00,0.00,29.2,28.4,00.0,38.4,30.9,16.6,0000.0,0011.88,0003.71,0002.16
2022-05-16 11:18:00,,0826.5,5.00,0.00,29.2,28.3,00.0,38.4,30.8,16.6,0000.0,0011.67,0003.69,0002.17
2022-05-16 11:19:00,,0826.5,4.99,0.00,29.2,28.3,00.0,38.3,30.8,16.6,0000.0,0011.26,0003.76,0002.19
2022-05-16 11:20:00,,0826.5,5.00,0.00,29.1,28.3,00.0,38.3,30.8,16.6,0000.0,0010.41,0003.70,0002.18
2022-05-16 11:21:00,,0826.5,5.00,0.00,29.1,28.3,00.0,38.3,30.8,16.6,0000.0,0009.90,0003.66,0002.18
2022-05-16 11:22:00,,0826.5,5.01,0.00,29.1,28.3,00.0,38.3,30.9,16.7,0000.0,0009.42,0003.65,0002.18
2022-05-16 11:23:00,,0826.5,5.01,0.00,29.1,28.3,00.0,38.3,30.9,16.6,0000.0,0009.02,0003.66,0002.18
2022-05-16 11:24:00,,0826.5,4.99,0.00,29.2,28.4,00.0,38.3,30.9,16.7,0000.0,0010.15,0003.66,0002.19
2022-05-16 11:25:00,,0826.5,5.01,0.00,29.2,28.4,00.0,38.2,30.9,16.7,0000.0,0010.68,0003.71,0002.16
2022-05-16 11:26:00,,0826.5,5.00,0.00,29.2,28.4,00.0,38.3,31.0,16.7,0000.0,0010.84,0003.72,0002.16
2022-05-16 11:27:00,,0826.5,4.99,0.00,29.2,28.5,00.0,38.2,31.0,16.7,0000.0,0010.68,0003.78,0002.18
2022-05-16 11:28:00,,0826.4,5.00,0.00,29.3,28.5,00.0,38.3,31.0,16.6,0000.0,0011.09,0003.79,0002.17
2022-05-16 11:29:00,,0826.5,5.00,0.00,29.3,28.5,00.0,38.2,31.0,16.4,0000.0,0011.20,0003.78,0002.14
2022-05-16 11:30:00,,0826.5,5.01,0.00,29.3,28.5,00.0,38.2,31.0,16.3,0000.0,0010.83,0003.73,0002.13
2022-05-16 11:31:00,,0826.5,5.00,0.00,29.2,28.5,00.0,38.2,31.0,16.2,0000.0,0010.79,0003.75,0002.14
2022-05-16 11:32:00,,0826.5,5.00,0.00,29.2,28.5,00.0,38.2,30.9,16.0,0000.0,0011.08,0003.76,0002.15
2022-05-16 11:33:00,,0826.5,4.99,0.00,29.2,28.5,00.0,38.2,30.9,15.8,0000.0,0011.07,0003.72,0002.15
2022-05-16 11:34:00,,0826.4,4.99,0.00,29.2,28.4,00.0,38.2,30.9,15.8,0000.0,0011.01,0003.70,0002.15
2022-05-16 11:35:00,,0826.4,5.00,0.00,29.2,28.4,00.0,38.2,30.9,15.8,0000.0,0010.33,0003.69,0002.13
2022-05-16 11:36:00,,0826.5,5.01,0.00,29.1,28.4,00.0,38.2,30.9,16.0,0000.0,0010.06,0003.68,0002.14
2022-05-16 11:37:00,,0826.4,5.00,0.00,29.1,28.4,00.0,38.2,30.8,16.1,0000.0,0009.97,0003.62,0002.16
2022-05-16 11:38:00,,0826.5,5.00,0.00,29.1,28.3,00.0,38.2,30.8,16.2,0000.0,0009.93,0003.59,0002.18
2022-05-16 11:39:00,,0826.4,4.99,0.00,29.1,28.3,00.0,38.2,30.8,16.2,0000.0,0009.47,0003.54,0002.18
2022-05-16 11:40:00,,0826.4,5.01,0.00,29.1,28.3,00.0,38.2,30.8,16.1,0000.0,0009.46,0003.59,0002.21
2022-05-16 11:41:00,,0826.4,5.00,0.00,29.1,28.3,00.0,38.2,30.8,16.1,0000.0,0010.16,0003.61,0002.23
2022-05-16 11:42:00,,0826.3,5.00,0.00,29.0,28.3,00.0,38.1,30.8,16.0,0000.0,0010.24,0003.55,0002.23
2022-05-16 11:43:00,,0826.3,5.00,0.00,29.0,28.2,00.0,38.1,30.7,15.9,0000.0,0010.56,0003.53,0002.22
2022-05-16 11:44:00,,0826.3,5.00,0.00,29.0,28.2,00.0,38.1,30.7,15.9,0000.0,0010.92,0003.58,0002.22
2022-05-16 11:45:00,,0826.3,5.00,0.00,29.0,28.2,00.0,38.1,30.7,15.9,0000.0,0011.32,0003.60,0002.23
2022-05-16 11:46:00,,0826.3,4.98,0.00,28.9,28.2,00.0,38.1,30.7,16.0,0000.0,0011.23,0003.62,0002.25
2022-05-16 11:47:00,,0826.3,5.00,0.00,28.9,28.2,00.0,38.1,30.7,16.0,0000.0,0010.92,0003.62,0002.25
2022-05-16 11:48:00,,0826.3,5.01,0.00,29.0,28.2,00.0,38.1,30.7,16.0,0000.0,0010.72,0003.63,0002.23
2022-05-16 11:49:00,,0826.4,4.99,0.00,29.0,28.2,00.0,38.1,30.7,16.0,0000.0,0011.35,0003.65,0002.23
2022-05-16 11:50:00,,0826.4,5.00,0.00,29.0,28.3,00.0,38.0,30.8,16.0,0000.0,0012.44,0003.67,0002.23
2022-05-16 11:51:00,,0826.4,5.01,0.00,29.0,28.3,00.0,38.0,30.8,16.0,0000.0,0013.33,0003.66,0002.23
2022-05-16 11:52:00,,0826.4,5.01,0.00,29.0,28.3,00.0,38.0,30.8,16.0,0000.0,0012.68,0003.62,0002.21
2022-05-16 11:53:00,,0826.3,4.98,0.00,29.0,28.3,00.0,38.0,30.8,16.0,0000.0,0012.99,0003.62,0002.21
2022-05-16 11:54:00,,0826.3,5.00,0.00,29.0,28.3,00.0,38.0,30.8,16.0,0000.0,0012.99,0003.65,0002.21
2022-05-16 11:55:00,,0826.3,5.01,0.00,29.0,28.3,00.0,38.0,30.8,16.0,0000.0,0013.31,0003.65,0002.24
2022-05-16 11:56:00,,0826.3,5.00,0.00,29.0,28.3,00.0,38.0,30.8,16.0,0000.0,0013.48,0003.66,0002.24
2022-05-16 11:57:00,,0826.3,4.99,0.00,29.0,28.3,00.0,38.0,30.7,16.0,0000.0,0014.10,0003.70,0002.26
2022-05-16 11:58:00,,0826.3,5.00,0.00,29.0,28.3,00.0,38.0,30.7,16.1,0000.0,0014.14,0003.69,0002.28
2022-05-16 11:59:00,,0826.3,5.01,0.00,29.0,28.2,00.0,38.0,30.7,16.1,0000.0,0014.31,0003.71,0002.30
